User: anonymous   Login
Location: Oshawa
(43.9000°N, 78.8670°W)
Time: 21:30:21
(UTC-04:00)
Language:

CARTOSAT-1 - Orbit

View from above orbital plane
View from above orbital plane
View from above satellite
View from above satellite

Ground track
Ground track

The orbit data is extracted from the following two-line orbital elements,

1 28649U 05017A   16274.46607576  .00000278  00000-0  40310-4 0  9992
2 28649  97.8910 346.5294 0002425 137.5675 222.5727 14.83436752617470
Epoch (UTC): 30 September 2016 11:11:08
Eccentricity: 0.0002425
inclination: 97.8910°
perigee height: 617 km
apogee height: 620 km
right ascension of ascending node: 346.5294°
argument of perigee: 137.5675°
revolutions per day: 14.83436752
mean anomaly at epoch: 222.5727°
orbit number at epoch: 61747

The dashed part of the orbit path shows where the satellite is in the earth's shadow,  

DLR